Regional Weather Roundup
Issued by NWS Sioux Falls, SD

Home | Current Version | Previous Version | Text Only | Print | Product List | Glossary Off
Versions: 1 2 3 4 5 6 7 8 9 10 11 12 13 14 15 16 17 18 19 20 21 22 23 24 25 26 27 28 29 30 31 32 33 34 35 36 37 38 39 40 41 42 43 44 45 46 47 48 49 50

000
ASUS43 KFSD 222310
RWRFSD

WEATHER ROUNDUP FOR SE SOUTH DAKOTA/SW MINNESOTA/NW IOWA
NATIONAL WEATHER SERVICE SIOUX FALLS SD
600 PM CDT SUN OCT 22 2017

NOTE: "FAIR" INDICATES FEW OR NO CLOUDS BELOW 12,000 FEET WITH NO
SIGNIFICANT WEATHER AND OR OBSTRUCTIONS TO VISIBILITY.


SDZ038>040-050-052>070-230000-
SOUTHEAST SOUTH DAKOTA

CITY           SKY/WX    TMP DP  RH WIND       PRES   REMARKS
BROOKINGS      CLEAR     62  30  29 SW10      29.86F
CHAMBERLAIN    CLEAR     67  35  30 SW8       29.84S
HURON          CLEAR     63  33  32 SW6       29.82F
MADISON        FAIR      59  30  33 SW10      29.87F
MITCHELL       CLEAR     67  30  25 SW7       29.85F
SIOUX FALLS    PTCLDY    65  30  27 SW9       29.89F
WINNER         FAIR      66  35  31 SW8       29.86S
YANKTON        CLEAR     66  30  26 S9        29.90F
$$

MNZ071-072-080-081-089-090-097-098-230000-
SOUTHWEST MINNESOTA

CITY           SKY/WX    TMP DP  RH WIND       PRES   REMARKS
FAIRMONT       CLEAR     58  39  49 S8        29.96S
JACKSON        CLEAR     61  30  31 S9        29.96S
LUVERNE        CLEAR     61  28  29 SW9       29.91S
MARSHALL       PTCLDY    63  31  30 S13       29.87F
MONTEVIDEO     MOCLDY    63  28  27 SW8       29.85F
PIPESTONE      CLEAR     61  28  29 SW9       29.89F
REDWOOD FALLS  CLEAR     62  31  31 S10       29.90S
TRACY          PTCLDY    64  32  30 S9G18     29.90S
WORTHINGTON    CLEAR     61  31  32 S9        29.93F
$$

IAZ001>003-012>014-020>022-031-032-NEZ013-014-SDZ071-230000-
NORTHWEST IOWA

CITY           SKY/WX    TMP DP  RH WIND       PRES   REMARKS
CHEROKEE       CLEAR     60  33  36 S10       29.96F
DENISON        CLEAR     63  36  36 S7G13     30.01F
ESTHERVILLE    CLEAR     59  32  36 S8        29.96S
LE MARS        CLEAR     66  28  24 S8G15     29.94S
ORANGE CITY    CLEAR     64  34  32 S9        29.94S
SHELDON        CLEAR     63  28  27 S9        29.92S
SIOUX CITY     CLEAR     65  30  27 SW8       29.95F
SPENCER        CLEAR     62  30  29 S10       29.96S
STORM LAKE     CLEAR     61  32  33 S9        29.98S
$$

ABBREVIATIONS USED IN REMARKS
   TC - TEMPERATURE IN CELSIUS
  WCI - WIND CHILL INDEX
   HX - HEAT INDEX
  VSB - VISIBILITY




USA.gov is the U.S. government's official web portal to all federal, state and local government web resources and services.